Flag for Qatar Weather past 2 weeks in Al-Jamiliyah, Qatar

Now
102 °F

Clear.


Feels Like: 108 °F
Forecast: 90 / 102 °F
Wind: 15 mph from Southeast

Location: Al Udeid

Current Time: Sep 5, 2015 at 1:50:24 PM

Latest Report: Sep 5, 2015 at 12:58 PM


Visibility: 3 mi

Pressure: 29.75 "Hg

Humidity: 33%

Dew point: 68 °F

Historic Weather in Al-Jamiliyah — Graph

°F

Al-Jamiliyah temperature yesterday

Maximum temperature yesterday: 105 °F (at 12:58 PM)
Minimum temperature yesterday: 85 °F (at 5:58 AM)
Average temperature yesterday: 94 °F

Past Weeks' High & Low Weather Summary

 TemperatureHumidityPressure
High116 °F (Aug 25, 1:58 PM)91% (Aug 30, 5:58 AM)29.79 "Hg (Aug 30, 5:58 AM)
Low84 °F (Sep 1, 5:58 AM)7% (Sep 3, 2:58 PM)29.48 "Hg (Aug 22, 1:58 PM)
Average98 °F49%29.58 "Hg
* Reported Aug 21 12:58 PM — Sep 5 12:58 PM, Al-Jamiliyah, Weather by CustomWeather, © 2015

Note: Actual official high and low records may vary slightly from our data, if they occured in-between our weather recording intervals... More about our weather records

Advertising

Al-Jamiliyah weather history for previous 24 hours

 ConditionsComfort  
Time TempWeatherWind HumidityBarometerVisibility
12:58 PM
Sat, Sep 5
102 °FClear.15 mph33%29.75 "Hg3 mi
11:58 AM102 °FClear.18 mph32%29.76 "Hg3 mi
10:58 AM100 °FClear.20 mph36%29.78 "Hg3 mi
9:58 AM100 °FClear.21 mph34%29.79 "Hg4 mi
8:58 AM99 °FClear.16 mph41%29.79 "Hg4 mi
7:58 AM98 °FClear.18 mph41%29.78 "Hg4 mi
6:58 AM95 °FClear.13 mph49%29.75 "Hg4 mi
5:58 AM92 °FClear.8 mph56%29.73 "Hg4 mi
4:58 AM93 °FClear.5 mph61%29.71 "Hg4 mi
3:58 AM93 °FFog.8 mph65%29.69 "Hg4 mi
2:58 AM93 °FFog.12 mph70%29.67 "Hg4 mi
1:58 AM92 °FClear.12 mph69%29.66 "Hg4 mi
12:58 AM93 °FSunny.9 mph69%29.67 "Hg5 mi
11:58 PM
Fri, Sep 4
93 °FSunny.10 mph67%29.68 "Hg5 mi
10:58 PM93 °FSunny.10 mph57%29.69 "Hg4 mi
9:59 PM94 °FSunny.10 mph56%29.69 "Hg4 mi
8:58 PM94 °FSunny.13 mph55%29.69 "Hg4 mi
7:58 PM94 °FSunny.15 mph60%29.67 "Hg4 mi
6:58 PM95 °FSunny.15 mph62%29.65 "Hg2 mi
5:58 PM96 °FSunny.16 mph53%29.64 "Hg2 mi
4:58 PM98 °FSunny.16 mph47%29.62 "Hg2 mi
3:58 PM100 °FHaze.16 mph45%29.62 "Hg5 mi
2:58 PM101 °FHaze.15 mph43%29.61 "Hg5 mi
1:58 PM101 °FHaze.13 mph43%29.61 "Hg5 mi
Weather by CustomWeather, © 2015

See weather overviewHow to use our weather pages